Regional Weather Roundup
Issued by NWS State College, PA

Home | Current Version | Previous Version | Graphics & Text | Print | Product List | Glossary Off
Versions: 1 2 3 4 5 6 7 8 9 10 11 12 13 14 15 16 17 18 19 20 21 22 23 24 25 26 27 28 29 30 31 32 33 34 35 36 37 38 39 40 41 42 43 44 45 46 47 48 49 50

000
ASUS41 KCTP 230210
RWRCTP

REGIONAL WEATHER ROUNDUP
NATIONAL WEATHER SERVICE STATE COLLEGE PA
1000 PM EDT WED MAR 22 2017

Note: "fair" indicates few or no clouds below 12,000 feet with no
significant weather and/or obstructions to visibility.

* = STATION THAT DOES NOT REPORT PRECIPITATION /E.G. RAIN...SNOW...ETC/
    THUNDER OR FOG.

PAZ002>004-007>009-013>016-020>023-029>032-230300-
WESTERN PENNSYLVANIA

CITY           SKY/WX    TMP DP  RH WIND       PRES   REMARKS
ERIE           CLEAR     23  11  60 SW6       30.55R
MEADVILLE      CLEAR     20   7  57 CALM      30.50R
FRANKLIN*      CLEAR     19   5  53 CALM      30.50R
NEW CASTLE     FAIR      23   9  55 N5        30.53R
BEAVER COUNTY  NOT AVBL
BUTLER*        CLEAR     25   9  50 NW5       30.50S
PITTSBURGH INT PTCLDY    28   8  43 N9        30.49R
PITTSBURGH     CLEAR     28   6  39 N9        30.47R
INDIANA*       PTCLDY    27   5  39 N5        30.49R
LATROBE        CLEAR     28   5  37 N7        30.49R
WASHINGTON CO* CLEAR     28   3  34 N8        30.50R
$$

PAZ004>006-010>012-017>019-024>028-033>037-041-042-045-046-049>053-230300-
CENTRAL PENNSYLVANIA

CITY           SKY/WX    TMP DP  RH WIND       PRES   REMARKS
BRADFORD       CLEAR     17   5  59 W5        30.41R WCI  10
DUBOIS         CLEAR     21   2  43 N9        30.43R WCI  11
CLEARFIELD       N/A    N/A N/A N/A MISG      30.45R
JOHNSTOWN      CLEAR     24   3  40 NW13      30.38R WCI  12
ALTOONA        CLEAR     29   3  33 VRB5      30.43R
STATE COLLEGE  NOT AVBL
WILLIAMSPORT   CLEAR     27  -1  30 NW6       30.48R
SELINSGROVE    CLEAR     27   5  39 NE6       30.47R
FT INDIANTOWN  CLEAR     29  -1  27 N6        30.44R
CAPITAL CITY   CLEAR     34   0  23 N8        30.46R
HARRISBURG     CLEAR     32   2  27 N8        30.45R
YORK           CLEAR     27  11  51 NW3       30.44R
$$

PAZ038>040-043-044-047-048-054-055-060>062-067>071-230300-
EASTERN PENNSYLVANIA

CITY           SKY/WX    TMP DP  RH WIND       PRES   REMARKS
SCRANTON       CLEAR     19   4  51 N7        30.43R WCI  10
MOUNT POCONO   CLEAR     14   0  53 NW16G23   30.31R WCI  -2
ALLENTOWN      CLEAR     26   1  34 NW12G22   30.45R
QUAKERTOWN*    CLEAR     27  -2  28 N10G17    30.44R
READING        CLEAR     29   1  30 N13       30.45R
LANCASTER      CLEAR     29   4  34 N8        30.45R
COATESVILLE    CLEAR     28  -2  26 N8        30.43R
POTTSTOWN      CLEAR     27  -1  30 N7        30.46R
BLUE BELL      CLEAR     28  -2  26 N8        30.44R
DOYLESTOWN     CLEAR     20  -1  40 NW13G21   30.43R WCI   7
WILLOW GROVE   NOT AVBL
NORTH PHILA    CLEAR     29   0  28 N16       30.46R
PHILADELPHIA   CLEAR     31  -4  22 N16G28    30.46R
$$



USA.gov is the U.S. government's official web portal to all federal, state and local government web resources and services.